Harrison, AR

4:52 PM CST on January 21, 2017 (GMT -0600)
Harrison

Weather History for KHRO - August, 2014

Change the Weather History Date:

Sunday, August 31, 2014

  Actual Average Record
Temperature  
Mean Temperature 78 °F 75 °F  
Max Temperature 89 °F 86 °F 106 °F (1913)
Min Temperature 67 °F 64 °F 41 °F (1915)
Degree Days  
Heating Degree Days 0 0  
Month to date heating degree days 0 0  
Since 1 June heating degree days 1 7  
Since 1 July heating degree days 1 1  
Cooling Degree Days 13 10  
Month to date cooling degree days 399 393  
Year to date cooling degree days 1130 1211  
Since 1 June cooling degree days 943 1072  
Growing Degree Days 28 (Base 50)    
Moisture  
Dew Point 70 °F    
Average Humidity 76    
Maximum Humidity 100    
Minimum Humidity 52    
Precipitation  
Precipitation 0.00 in 0.12 in 3.58 in (1905)
Month to date precipitation 1.15 3.58  
Year to date precipitation 26.68 28.96  
Snow  
Snow 0.00 in 0.00 in - ()
Month to date snowfall 0.0 0.0  
Since 1 June snowfall 0.0 0.0  
Since 1 July snowfall 0.0 0.0  
Snow Depth 0.00 in    
Sea Level Pressure  
Sea Level Pressure 29.94 in    
Wind  
Wind Speed 8 mph (SSE)    
Max Wind Speed 20 mph    
Max Gust Speed 24 mph    
Visibility 10 miles    
Events      
T = Trace of Precipitation, MM = Missing Value Source: NWS Daily Summary

Daily Weather History Graph

Daily Weather History Graph

Search for Another Location

Airport or City:

Trip Planner

Search our weather history database for the weather conditions in past years. The results will help you decide how hot, cold, wet, or windy it might be!

Date:

Astronomy

Aug. 31, 2014 Rise Set
Actual Time 6:43 AM CDT 7:41 PM CDT
Civil Twilight 6:17 AM CDT 8:08 PM CDT
Nautical Twilight 5:45 AM CDT 8:39 PM CDT
Astronomical Twilight 5:13 AM CDT 9:11 PM CDT
Moon 12:19 PM CDT (8/31) 11:08 PM CDT (8/31)
Length of Visible Light 13h 51m
Length of Day
12h 58m
Waxing Crescent, 32% of the Moon is Illuminated
Aug 31
Waxing Crescent
Sep 2
First Quarter
Sep 8
Full
Sep 15
Last Quarter
Sep 24
New

Hourly Weather History & Observations

Time (CDT) Temp. Heat Index Dew Point Humidity Pressure Visibility Wind Dir Wind Speed Gust Speed Precip Events Conditions
12:53 AM 71.1 °F - 70.0 °F 96% 29.94 in 10.0 mi SE 6.9 mph - N/A   Clear
1:53 AM 70.0 °F - 69.1 °F 97% 29.94 in 10.0 mi South 4.6 mph - N/A   Partly Cloudy
2:53 AM 69.1 °F - 69.1 °F 100% 29.94 in 7.0 mi South 4.6 mph - N/A   Clear
3:53 AM 70.0 °F - 69.1 °F 97% 29.93 in 8.0 mi South 3.5 mph - N/A   Clear
4:53 AM 69.1 °F - 68.0 °F 96% 29.94 in 10.0 mi Calm Calm - N/A   Clear
5:53 AM 68.0 °F - 68.0 °F 100% 29.96 in 10.0 mi SE 3.5 mph - N/A   Clear
6:53 AM 68.0 °F - 66.9 °F 96% 29.97 in 10.0 mi Calm Calm - N/A   Clear
7:53 AM 71.1 °F - 70.0 °F 96% 29.99 in 10.0 mi ESE 3.5 mph - N/A   Clear
8:53 AM 75.0 °F - 71.1 °F 87% 29.98 in 10.0 mi East 3.5 mph - N/A   Clear
9:53 AM 80.1 °F 83.6 °F 71.1 °F 74% 29.99 in 10.0 mi Calm Calm - N/A   Clear
10:53 AM 82.0 °F 85.5 °F 69.1 °F 65% 29.99 in 10.0 mi WSW 5.8 mph - N/A   Scattered Clouds
11:53 AM 86.0 °F 89.4 °F 68.0 °F 55% 29.97 in 10.0 mi SW 6.9 mph - N/A   Clear
12:53 PM 88.0 °F 92.1 °F 69.1 °F 53% 29.96 in 10.0 mi South 12.7 mph - N/A   Mostly Cloudy
1:53 PM 89.1 °F 94.1 °F 70.0 °F 53% 29.94 in 10.0 mi SSE 11.5 mph - N/A   Scattered Clouds
2:53 PM 88.0 °F 92.9 °F 70.0 °F 55% 29.92 in 10.0 mi South 13.8 mph 24.2 mph N/A   Partly Cloudy
3:53 PM 87.1 °F 90.6 °F 68.0 °F 53% 29.92 in 10.0 mi South 17.3 mph 21.9 mph N/A   Clear
4:53 PM 87.1 °F 91.3 °F 69.1 °F 55% 29.91 in 10.0 mi South 13.8 mph 20.7 mph N/A   Clear
5:53 PM 84.9 °F 88.8 °F 69.1 °F 59% 29.90 in 10.0 mi South 11.5 mph 18.4 mph N/A   Clear
6:53 PM 82.0 °F 85.9 °F 70.0 °F 67% 29.89 in 10.0 mi South 10.4 mph - N/A   Clear
7:53 PM 79.0 °F - 71.1 °F 77% 29.88 in 10.0 mi SSE 10.4 mph - N/A   Partly Cloudy
8:42 PM 78.1 °F - 72.0 °F 81% 29.93 in 10.0 mi SE 8.1 mph - N/A   Mostly Cloudy
8:53 PM 78.8 °F - 71.6 °F 78% 29.93 in 10.0 mi SSE 8.1 mph - N/A   Mostly Cloudy
9:23 PM 77.0 °F - 71.1 °F 82% 29.94 in 10.0 mi SSE 10.4 mph - N/A   Scattered Clouds
9:53 PM 75.9 °F - 71.1 °F 85% 29.90 in 10.0 mi SSE 9.2 mph - N/A   Scattered Clouds
10:53 PM 75.0 °F - 71.1 °F 87% 29.88 in 10.0 mi SSE 9.2 mph - N/A   Partly Cloudy
11:53 PM 75.0 °F - 71.1 °F 87% 29.88 in 10.0 mi SSE 8.1 mph - N/A   Partly Cloudy